This demonstration page uses our WeatherBlox Daily Observations layout. Learn more.

Left ArrowRight Arrow

30.21309, -93.2044

Hourly Observations for May 30, 2015

Temp ( °F °C ) Dew Point ( °F °C ) Humidity (%) Winds ( mph kmh ) Pressure ( in mb ) Visibility ( mi km ) Precip ( " mm )
12:15 am 00:15 Clear 73 22.8 72 22.3 97 97 SSE 3 6 30.03 1017 10 16 0.00 0.00
12:35 am 00:35 Clear 73 22.7 72 22.3 98 98 SSE 5 7 30.03 1017 10 16 0.00 0.00
12:55 am 00:55 Clear 73 22.7 72 22.2 97 97 SSE 3 6 30.03 1017 10 16 0.00 0.00
1:15 am 01:15 Mostly Cloudy 73 22.7 72 22.3 98 98 SE 5 7 30.03 1017 10 16 0.00 0.00
1:35 am 01:35 Mostly Cloudy 74 23.3 73 22.7 96 96 Calm 30.00 1016 10 16 0.00 0.00
1:55 am 01:55 Partly Cloudy 74 23.3 73 22.7 96 96 SSE 5 7 30.00 1016 10 16 0.00 0.00
2:15 am 02:15 Clear 73 23 72 22.4 96 96 SSE 5 7 30.00 1016 10 16 0.00 0.00
2:35 am 02:35 Clear 73 22.7 72 22.4 98 98 SE 3 6 30.00 1016 7 11 0.00 0.00
2:55 am 02:55 Clear 73 23 73 22.5 97 97 SE 3 6 30.00 1016 10 16 0.00 0.00
3:15 am 03:15 Clear 73 22.5 72 22.2 98 98 SSE 5 7 30.00 1016 7 11 0.00 0.00
3:35 am 03:35 Clear 72 22.2 72 22 99 99 SSE 3 6 30.00 1016 7 11 0.00 0.00
3:55 am 03:55 Clear 72 22.3 72 22.1 99 99 SSE 3 6 30.00 1016 7 11 0.00 0.00
4:15 am 04:15 Clear 72 22.2 72 22 99 99 Calm 30.00 1016 7 11 0.00 0.00
4:35 am 04:35 Clear 73 22.5 72 22.2 98 98 Calm 30.00 1016 7 11 0.00 0.00
4:55 am 04:55 Partly Cloudy 73 22.5 72 22.2 98 98 Calm 30.00 1016 7 11 0.00 0.00
5:15 am 05:15 Clear 72 22.3 72 22 98 98 E 3 6 30.00 1016 7 11 0.00 0.00
6:00 am 06:00 Mostly Clear 72 22 72 22 100 100 Calm 30.03 1017 10 16 0.00 0.00
6:50 am 06:50 Mostly Sunny 72 22 72 22 100 100 Calm 30.03 1017 10 16 0.00 0.00
7:50 am 07:50 Partly Cloudy 75 24 73 23 94 94 Calm 30.06 1018 10 16 0.00 0.00
8:50 am 08:50 Partly Cloudy 81 27 73 23 79 79 SSW 6 9 30.06 1018 10 16 0.00 0.00
9:50 am 09:50 Mostly Cloudy 82 28 72 22 70 70 SSW 7 11 30.06 1018 10 16 0.00 0.00
10:50 am 10:50 Partly Cloudy 84 29 70 21 62 62 S 3 6 30.06 1018 10 16 0.00 0.00
11:50 am 11:50 Mostly Cloudy 86 30 70 21 59 59 Calm 30.06 1018 10 16 0.00 0.00
12:50 pm 12:50 Partly Cloudy 88 31 72 22 59 59 S 6 9 30.03 1017 10 16 0.00 0.00
1:50 pm 13:50 Partly Cloudy 88 31 72 22 59 59 SSW 10 17 30.03 1017 10 16 0.00 0.00
5:50 pm 17:50 Partly Cloudy 81 27 72 22 74 74 VRB 5 7 30.00 1016 10 16 0.00 0.00
6:50 pm 18:50 Partly Cloudy 79 26 72 22 79 79 Calm 30.00 1016 10 16 0.00 0.00
9:50 pm 21:50 Mostly Cloudy 73 23 66 19 78 78 Calm 30.03 1017 10 16 0.00 0.00
10:15 pm 22:15 Cloudy with Thunderstorms 73 23 67 19.6 81 81 Calm 30.06 1018 10 16 0.00 0.00
10:35 pm 22:35 Partly Cloudy with Nearby Thunderstorms 73 22.9 67 19.7 82 82 E 3 6 30.03 1017 10 16 0.00 0.00
10:55 pm 22:55 Clear 72 22.4 68 20.1 87 87 Calm 30.03 1017 10 16 0.00 0.00
11:15 pm 23:15 Partly Cloudy 72 22.3 69 20.5 90 90 Calm 30.03 1017 10 16 0.00 0.00
11:35 pm 23:35 Clear 72 22.2 69 20.4 90 90 SSE 5 7 30.03 1017 10 16 0.00 0.00
11:55 pm 23:55 Clear 72 22 69 20.5 91 91 Calm 30.03 1017 10 16 0.00 0.00

Powered by AerisWeather